Current weather by "City, St" or "zip code"  
 

Current Conditions: Plainview, Hale County Airport, TX

Fair


57.0 F

Last Updated on Oct 24 2020, 9:55 pm CDT
Humidity: 44%
Wind Speed: S 6.9 mph
Barometer 29.84 in
Dewpoint: 35.2 F
Visibility: 10.00 mi
Precip: --
Heat Index: NA
Wind Chill: 56 F
Current conditions at:

Plainview, Hale County Airport, TX (KPVW)

Lat: 34.16806 Lon: 101.71722

Local Radar Image active severe weather and emergency alerts image image weather storm and storm spotter reports image weather observation monitoring service image
Local
Radar
Active
Alerts
Storm Reports Obs
Monitoring

Sign-up For Email & Text Message Weather Alert Notification Services



Advertise Here

Observation History for Plainview, Hale County Airport, TX


Time Wind
(mph)
Vis
(mi)
Weather Precip (in) Temperature (F) Relative
Humidity
Wind
Chill
(F)
Heat
Index
(F)
Pressure
Air Dwpt altimeter
(in)
sea level
(mb)
Rmks
9:55 pm CDT S 6.9 10.00 Fair -- 57.0 35.2 44% 56 NA 29.84 M
8:55 pm CDT S 6.9 10.00 Fair -- 59.0 35.1 41% 58 NA 29.85 M
7:55 pm CDT SW 11.5 10.00 Fair -- 62.0 35.4 38% 61 NA 29.83 M
6:55 pm CDT SW 12.7 10.00 Fair -- 66.0 35.2 32% NA NA 29.83 M
6:35 pm CDT SW 12.7 10.00 Fair -- 66.0 35.1 32% NA NA 29.84 M
5:55 pm CDT SW 18.4 G 26.5 10.00 Fair -- 68.0 34.9 30% NA NA 29.83 M
4:55 pm CDT SW 20.7 G 27.6 10.00 Fair and Breezy -- 69.0 34.2 28% NA NA 29.84 M
4:35 pm CDT SW 16.1 G 31.1 10.00 Fair -- 69.0 34.3 28% NA NA 29.85 M
3:55 pm CDT SW 19.6 G 26.5 10.00 Fair -- 67.0 34.2 30% NA NA 29.86 M
3:35 pm CDT SW 19.6 G 26.5 10.00 Fair -- 67.0 34.0 30% NA NA 29.88 M
2:55 pm CDT SW 20.7 G 28.8 10.00 Fair and Breezy -- 63.0 33.3 33% 61 NA 29.91 M
1:55 pm CDT SW 20.7 G 26.5 10.00 Fair and Breezy -- 59.0 32.4 36% 55 NA 29.97 M
12:55 pm CDT SW 17.3 G 25.3 10.00 Fair -- 54.0 31.6 42% 49 NA 30.04 M
12:35 pm CDT SW 17.3 G 25.3 10.00 Fair -- 55.0 31.3 41% 51 NA 30.06 M
11:55 am CDT SW 15.0 G 24.2 10.00 Fair -- 51.0 30.6 46% 46 NA 30.07 M
10:55 am CDT SW 15.0 G 19.6 10.00 Fair -- 44.0 28.6 55% 37 NA 30.11 M
9:55 am CDT S 12.7 10.00 Fair -- 40.0 27.7 60% 33 NA 30.13 M
8:55 am CDT S 3.5 10.00 Fair -- 32.0 24.1 73% NA NA 30.15 M
7:55 am CDT N 0.0 10.00 Fair -- 29.0 22.8 77% NA NA 30.16 M
6:55 am CDT N 0.0 10.00 Fair -- 29.0 22.8 76% NA NA 30.18 M
6:35 am CDT N 0.0 10.00 Fair -- 30.0 23.4 77% NA NA 30.18 M
5:55 am CDT N 0.0 10.00 Fair -- 30.0 22.6 73% NA NA 30.18 M
5:35 am CDT N 0.0 10.00 Fair -- 31.0 23.4 73% NA NA 30.18 M
4:55 am CDT N 0.0 10.00 Fair -- 31.0 22.5 72% NA NA 30.20 M

Regional Weather Observation


Hereford Municipal Airport, TX (KHRX)

Fair
58.0 F

Lubbock, Lubbock International Airport, TX (KLBB)

Overcast
65.0 F

Amarillo, Amarillo International Airport, TX (KAMA)

Fair
54.0 F

Clovis Municipal Airport, NM (KCVN)

Fair
58.0 F

Cannon Air Force Base / Clovis, NM (KCVS)

Fair
58.0 F

Childress, Childress Municipal Airport, TX (KCDS)

Fair
50.0 F